Location: Meanaryar
(48.4161°N, 4.7315°W)
Time: 08:45:06
(UTC+00:00)

Cosmos 1092 Rocket - Pass Details

Date: 25 January 2021
Orbit: 954 x 995 km, 83.0° (Epoch: 02 March)

Event Time Altitude Azimuth Distance (km) Brightness Sun altitude
Rises 05:23:52 0° 353° (N) 3,645 6.9 -25.1°
Reaches altitude 10° 05:26:24 10° 356° (N) 2,697 6.3 -24.7°
Maximum altitude 05:32:31 62° 77° (ENE) 1,076 4.4 -23.7°
Drops below altitude 10° 05:38:37 10° 158° (SSE) 2,695 6.6 -22.7°
Sets 05:41:09 0° 162° (SSE) 3,643 7.3 -22.2°
